Bloomington, IN

10:03 PM EDT on July 26, 2017 (GMT -0400)
Monroe County

Weather History for KBMG - May, 2012

Change the Weather History Date:

Thursday, May 17, 2012

  Actual Average Record
Temperature  
Mean Temperature 62 °F 63 °F  
Max Temperature 75 °F 74 °F 87 °F (1998)
Min Temperature 49 °F 52 °F 40 °F (2014)
Degree Days  
Heating Degree Days 3 4  
Month to date heating degree days 29 96  
Since 1 July heating degree days 4131 5210  
Cooling Degree Days 0 2  
Month to date cooling degree days 66 22  
Year to date cooling degree days 114 41  
Growing Degree Days 12 (Base 50)    
Moisture  
Dew Point 40 °F    
Average Humidity 51    
Maximum Humidity 77    
Minimum Humidity 25    
Precipitation  
Precipitation 0.00 in 0.17 in 0.97 in (2004)
Month to date precipitation 1.87 2.97  
Year to date precipitation 11.32 17.62  
Sea Level Pressure  
Sea Level Pressure 30.07 in    
Wind  
Wind Speed 6 mph (ENE)    
Max Wind Speed 16 mph    
Max Gust Speed 21 mph    
Visibility 10 miles    
Events      
T = Trace of Precipitation, MM = Missing Value Source: NWS Daily Summary

Daily Weather History Graph

Daily Weather History Graph

Search for Another Location

Airport or City:

Trip Planner

Search our weather history database for the weather conditions in past years. The results will help you decide how hot, cold, wet, or windy it might be!

Date:

Astronomy

May. 17, 2012 Rise Set
Actual Time 6:31 AM EDT 8:55 PM EDT
Civil Twilight 6:00 AM EDT 9:25 PM EDT
Nautical Twilight 5:23 AM EDT 10:03 PM EDT
Astronomical Twilight 4:41 AM EDT 10:44 PM EDT
Moon 4:28 AM EDT (5/17) 6:07 PM EDT (5/17)
Length of Visible Light 15h 24m
Length of Day
14h 23m
Waning Crescent, 10% of the Moon is Illuminated
May 17
Waning Crescent
May 20
New
May 28
First Quarter
Jun 4
Full
Jun 11
Last Quarter

Hourly Weather History & Observations

Time (EDT) Temp. Dew Point Humidity Pressure Visibility Wind Dir Wind Speed Gust Speed Precip Events Conditions
12:53 AM 55.9 °F 41.0 °F 57% 30.04 in 10.0 mi North 8.1 mph - N/A   Clear
1:53 AM 53.1 °F 37.9 °F 57% 30.04 in 10.0 mi NNE 5.8 mph - N/A   Clear
2:53 AM 52.0 °F 37.9 °F 59% 30.04 in 10.0 mi NNE 6.9 mph - N/A   Clear
3:53 AM 53.1 °F 37.0 °F 55% 30.05 in 10.0 mi NE 4.6 mph - N/A   Clear
4:53 AM 52.0 °F 37.9 °F 59% 30.06 in 10.0 mi ENE 3.5 mph - N/A   Clear
5:53 AM 50.0 °F 39.0 °F 66% 30.08 in 10.0 mi Calm Calm - N/A   Clear
6:53 AM 51.1 °F 39.9 °F 66% 30.09 in 10.0 mi East 4.6 mph - N/A   Clear
7:53 AM 55.0 °F 39.9 °F 57% 30.11 in 10.0 mi East 6.9 mph - N/A   Clear
8:53 AM 59.0 °F 39.9 °F 49% 30.12 in 10.0 mi East 11.5 mph - N/A   Clear
9:53 AM 62.1 °F 39.9 °F 44% 30.12 in 10.0 mi East 10.4 mph 18.4 mph N/A   Clear
10:53 AM 64.0 °F 39.0 °F 40% 30.12 in 10.0 mi East 13.8 mph - N/A   Clear
11:53 AM 68.0 °F 41.0 °F 37% 30.11 in 10.0 mi NE 8.1 mph - N/A   Clear
12:53 PM 70.0 °F 39.9 °F 33% 30.11 in 10.0 mi NE 9.2 mph 16.1 mph N/A   Clear
1:53 PM 71.1 °F 39.0 °F 31% 30.09 in 10.0 mi ENE 10.4 mph - N/A   Clear
2:53 PM 73.0 °F 41.0 °F 31% 30.07 in 10.0 mi NE 9.2 mph - N/A   Clear
3:53 PM 73.9 °F 37.9 °F 27% 30.06 in 10.0 mi East 8.1 mph - N/A   Clear
4:53 PM 75.0 °F 37.9 °F 26% 30.05 in 10.0 mi NE 8.1 mph - N/A   Clear
5:53 PM 73.9 °F 37.9 °F 27% 30.04 in 10.0 mi ENE 8.1 mph - N/A   Clear
6:53 PM 73.0 °F 37.9 °F 28% 30.04 in 10.0 mi East 9.2 mph - N/A   Clear
7:53 PM 71.1 °F 37.0 °F 29% 30.04 in 10.0 mi East 8.1 mph - N/A   Clear
8:53 PM 64.0 °F 41.0 °F 43% 30.04 in 10.0 mi East 3.5 mph - N/A   Clear
9:53 PM 57.0 °F 44.1 °F 62% 30.04 in 10.0 mi Calm Calm - N/A   Clear
10:53 PM 55.0 °F 42.1 °F 62% 30.06 in 10.0 mi Calm Calm - N/A   Clear
11:53 PM 52.0 °F 44.1 °F 74% 30.06 in 10.0 mi Calm Calm - N/A   Clear